Flag Weather past 2 weeks in Tangier, Morocco

Now
59 °F

Thunderstorms. Partly cloudy.


Feels Like: 56 °F
Forecast: 58 / 61 °F
Wind: 14 mph from Southwest

Location: Tanger Aerodrome

Current Time: Nov 27, 2014 at 2:03:34 AM

Latest Report: Nov 27, 2014 at 1:30 AM


Visibility: 3 mi

Pressure: 29.68 "Hg

Humidity: 88%

Dew point: 55 °F

Location of TangierLocation

Historic Weather in Tangier — Graph

°F

Tangier temperature yesterday

Maximum temperature yesterday: 68 °F (at 1:00 PM)
Minimum temperature yesterday: 59 °F (at 6:30 AM)
Average temperature yesterday: 63 °F

Past Weeks' High & Low Weather Summary

 TemperatureHumidityPressure
High75 °F (Nov 19, 1:00 PM)100% (Nov 25, 8:30 AM)30.15 "Hg (Nov 25, 8:30 AM)
Low48 °F (Nov 17, 7:30 AM)49% (Nov 18, 2:30 PM)29.65 "Hg (Nov 22, 1:30 PM)
Average63 °F79%29.93 "Hg
* Reported Midnight between Nov 11 and Nov 12 — Nov 27 12:47 AM, Tangier, Weather by CustomWeather, © 2014

Note: Actual official high and low records may vary slightly from our data, if they occured in-between our weather recording intervals... More about our weather records

Advertising

Tangier weather history for previous 24 hours

 ConditionsComfort  
Time TempWeatherWind HumidityBarometerVisibility
12:47 AM
Nov 27
61 °FThunderstorms. Partly cloudy.16 mph83%29.71 "Hg3 mi
12:30 AM61 °FPartly cloudy.15 mph83%29.71 "Hg3 mi
11:30 PM
Nov 26
59 °FLight rain. Partly cloudy.14 mph88%29.74 "Hg3 mi
11:00 PM59 °FLight rain. Partly cloudy.13 mph88%29.74 "Hg3 mi
10:30 PM59 °FLight rain. Partly cloudy.12 mph82%29.77 "Hg3 mi
10:00 PM59 °FThunderstorms. Partly cloudy.14 mph88%29.77 "Hg3 mi
9:30 PM63 °FRain. Partly cloudy.10 mph77%29.74 "Hg3 mi
9:00 PM61 °FPartly cloudy.7 mph77%29.77 "Hg5 mi
8:30 PM61 °FRain. Partly cloudy.9 mph83%29.77 "Hg5 mi
8:00 PM63 °FRain. Partly cloudy.10 mph73%29.80 "Hg5 mi
7:30 PM63 °FRain. Partly cloudy.7 mph73%29.80 "Hg5 mi
7:00 PM64 °FPartly cloudy.10 mph64%29.80 "Hg5 mi
6:30 PM64 °FPassing clouds.10 mph68%29.80 "Hg5 mi
6:00 PM64 °FPassing clouds.10 mph68%29.83 "Hg5 mi
5:30 PM64 °FPassing clouds.9 mph68%29.83 "Hg5 mi
5:00 PM64 °FPassing clouds.7 mph64%29.86 "Hg5 mi
4:30 PM64 °FPassing clouds.12 mph60%29.86 "Hg5 mi
4:00 PM66 °FPartly sunny.14 mph56%29.86 "Hg5 mi
3:30 PM68 °FPartly sunny.14 mph64%29.86 "Hg5 mi
3:00 PM64 °FPartly sunny.14 mph64%29.86 "Hg5 mi
2:30 PM66 °FPartly sunny.16 mph64%29.89 "Hg5 mi
2:00 PM68 °FPartly sunny.15 mph64%29.89 "Hg5 mi
1:30 PM68 °FPartly sunny.16 mph60%29.92 "Hg5 mi
1:00 PM68 °FPartly sunny.16 mph64%29.92 "Hg5 mi
12:30 PM66 °FPartly sunny.15 mph64%29.92 "Hg5 mi
12:00 PM66 °FPartly sunny.12 mph68%29.95 "Hg5 mi
11:30 AM66 °FBroken clouds.10 mph68%29.95 "Hg4 mi
11:00 AM66 °FBroken clouds.13 mph73%29.98 "Hg4 mi
10:30 AM64 °FBroken clouds.9 mph78%29.98 "Hg4 mi
10:00 AM64 °FBroken clouds.8 mph78%29.98 "Hg4 mi
9:30 AM63 °FBroken clouds.8 mph83%30.01 "Hg4 mi
9:00 AM61 °FBroken clouds.9 mph88%30.01 "Hg4 mi
8:30 AM59 °FBroken clouds.8 mph88%30.01 "Hg4 mi
8:00 AM59 °FBroken clouds.8 mph88%30.01 "Hg4 mi
7:30 AM59 °FOvercast.9 mph88%30.01 "Hg4 mi
7:00 AM59 °FOvercast.7 mph88%30.01 "Hg4 mi
6:30 AM59 °FOvercast.6 mph88%30.01 "Hg4 mi
6:00 AM61 °FOvercast.5 mph83%30.01 "Hg4 mi
5:30 AM61 °FOvercast.5 mph83%30.01 "Hg4 mi
5:00 AM61 °FOvercast.5 mph83%30.01 "Hg4 mi
4:30 AM61 °FOvercast.5 mph83%30.01 "Hg4 mi
4:00 AM61 °FOvercast.5 mph83%30.01 "Hg4 mi
3:30 AM61 °FOvercast.3 mph83%30.01 "Hg4 mi
3:00 AM61 °FOvercast.5 mph83%30.04 "Hg4 mi
2:30 AM61 °FOvercast.7 mph83%30.04 "Hg4 mi
2:00 AM61 °FOvercast.9 mph83%30.04 "Hg4 mi
Weather by CustomWeather, © 2014

See weather overviewHow to use our weather pages